Weather History for Brisbane Airport M. O, Queensland

Change the Weather History Date:

Wednesday, September 11, 2013

  Actual Average Record
Temperature  
Mean Temperature 67 °F -  
Max Temperature 80 °F 76 °F - ()
Min Temperature 54 °F 57 °F - ()
Cooling Degree Days 2    
Growing Degree Days 17 (Base 50)    
Moisture  
Dew Point 60 °F    
Average Humidity 75    
Maximum Humidity 100    
Minimum Humidity 32    
Precipitation  
Precipitation 0.00 in 0.08 in - ()
Sea Level Pressure  
Sea Level Pressure 29.87 in    
Wind  
Wind Speed 8 mph ()    
Max Wind Speed 16 mph    
Max Gust Speed -    
Visibility 14.5 miles    
Events Fog    
T = Trace of Precipitation, MM = Missing Value Source: Averaged Metar Reports

Daily Weather History Graph

Daily Weather History Graph

Search for Another Location

Airport:

Trip Planner

Search our weather history database for the weather conditions in past years. The results will help you decide how hot, cold, wet, or windy it might be!

Date:

Astronomy

Sep. 11, 2013 Rise Set
Actual Time 5:50 AM AEST 5:38 PM AEST
Civil Twilight 5:26 AM AEST 6:01 PM AEST
Nautical Twilight 4:59 AM AEST 6:29 PM AEST
Astronomical Twilight 4:32 AM AEST 6:56 PM AEST
Moon 9:25 AM AEST (9/11) 11:13 PM AEST (9/11)
Length of Visible Light 12h 35m
Length of Day
11h 48m
Waxing Crescent, 32% of the Moon is Illuminated
Sep 11
Waxing Crescent
Sep 13
First Quarter
Sep 19
Full
Sep 27
Last Quarter
Oct 5
New

Hourly Weather History & Observations

Time (AEST) Temp. Heat Index Dew Point Humidity Pressure Visibility Wind Dir Wind Speed Gust Speed Precip Events Conditions
12:00 AM 64 °F - 60 °F 84% 29.90 in - North 11.5 mph - -  
12:00 AM 64.4 °F - 60.8 °F 88% 29.89 in - North 11.5 mph - N/A   Clear
12:30 AM 62.6 °F - 59.0 °F 88% 29.89 in - North 10.4 mph - N/A   Clear
1:00 AM 63 °F - 60 °F 85% 29.89 in - North 11.5 mph - -  
1:00 AM 62.6 °F - 59.0 °F 88% 29.89 in - North 11.5 mph - N/A   Clear
1:30 AM 62.6 °F - 59.0 °F 88% 29.86 in - North 9.2 mph - N/A   Clear
2:00 AM 60.8 °F - 59.0 °F 94% 29.86 in - North 8.1 mph - N/A   Clear
2:30 AM 59.0 °F - 57.2 °F 94% 29.86 in - North 5.8 mph - N/A   Clear
3:00 AM 58 °F - 57 °F 94% 29.86 in 19 mi NNW 3.5 mph - -   Partly Cloudy
3:00 AM 57.2 °F - 57.2 °F 100% 29.86 in - NNW 3.5 mph - N/A   Clear
3:30 AM 57.2 °F - 57.2 °F 100% 29.86 in - West 4.6 mph - N/A   Clear
4:00 AM 56 °F - 55 °F 95% 29.87 in - WSW 5.8 mph - -  
4:00 AM 55.4 °F - 55.4 °F 100% 29.86 in - WSW 5.8 mph - N/A   Clear
4:30 AM 57.2 °F - 55.4 °F 94% 29.86 in - WSW 3.5 mph - N/A   Clear
5:00 AM 57.2 °F - 55.4 °F 94% 29.89 in - WSW 4.6 mph - N/A   Clear
5:30 AM 55.4 °F - 55.4 °F 100% 29.89 in 6.2 mi West 3.5 mph - N/A Fog Shallow Fog
6:00 AM 55 °F - 54 °F 97% 29.91 in - Calm Calm - -  
6:00 AM 55.4 °F - 53.6 °F 94% 29.89 in - Calm Calm - N/A   Clear
6:30 AM 57.2 °F - 57.2 °F 100% 29.92 in - SW 5.8 mph - N/A   Clear
7:00 AM 60 °F - 58 °F 91% 29.93 in - SSW 3.5 mph - -  
7:00 AM 60.8 °F - 59.0 °F 94% 29.92 in - SSW 3.5 mph - N/A   Clear
7:30 AM 62.6 °F - 59.0 °F 88% 29.92 in - South 3.5 mph - N/A   Clear
8:00 AM 66.2 °F - 59.0 °F 78% 29.92 in - SSW 1.2 mph - N/A   Clear
8:30 AM 69.8 °F - 59.0 °F 68% 29.92 in - Calm Calm - N/A   Clear
9:00 AM 74 °F - 56 °F 44% 29.94 in 16 mi North 5.8 mph - -   Haze
9:00 AM 73.4 °F - 57.2 °F 57% 29.92 in - North 5.8 mph - N/A   Clear
9:30 AM 75.2 °F - 57.2 °F 53% 29.92 in - North 5.8 mph - N/A   Clear
10:00 AM 76 °F - 57 °F 41% 29.92 in - NNW 6.9 mph - -  
10:00 AM 77.0 °F - 57.2 °F 50% 29.92 in - NNW 6.9 mph - N/A   Clear
10:30 AM 77.0 °F - 50.0 °F 39% 29.89 in - North 8.1 mph - N/A   Clear
11:00 AM 78.8 °F - 51.8 °F 39% 29.89 in - NNE 9.2 mph - N/A   Clear
11:30 AM 78.8 °F - 53.6 °F 42% 29.86 in - North 9.2 mph - N/A   Clear
12:00 PM 80 °F - 56 °F 32% 29.86 in 16 mi NNE 10.4 mph - -   Haze
12:00 PM 80.6 °F 80.5 °F 55.4 °F 42% 29.86 in - NNE 10.4 mph - N/A   Clear
12:30 PM 80.6 °F 80.8 °F 57.2 °F 45% 29.83 in - NNE 11.5 mph - N/A   Clear
1:00 PM 78 °F - 57 °F 38% 29.83 in - NNE 13.8 mph - -  
1:00 PM 78.8 °F - 57.2 °F 47% 29.83 in - NNE 13.8 mph - N/A   Clear
1:30 PM 78.8 °F - 57.2 °F 47% 29.80 in - NE 12.7 mph - N/A   Clear
2:00 PM 80.6 °F 80.8 °F 57.2 °F 45% 29.80 in - NNE 13.8 mph - N/A   Clear
2:30 PM 78.8 °F - 57.2 °F 47% 29.80 in - NNE 15.0 mph - N/A   Clear
3:00 PM 80 °F - 61 °F 42% 29.80 in 16 mi NNE 12.7 mph - -   Haze
3:00 PM 78.8 °F - 60.8 °F 54% 29.80 in - NNE 12.7 mph - N/A   Clear
3:30 PM 77.0 °F - 62.6 °F 61% 29.77 in - NNE 13.8 mph - N/A   Clear
4:00 PM 75 °F - 63 °F 58% 29.79 in - North 16.1 mph - -  
4:00 PM 75.2 °F - 62.6 °F 65% 29.77 in - North 16.1 mph - N/A   Clear
4:30 PM 73.4 °F - 64.4 °F 73% 29.80 in - North 13.8 mph - N/A   Clear
5:00 PM 73.4 °F - 64.4 °F 73% 29.80 in - North 9.2 mph - N/A   Clear
5:30 PM 71.6 °F - 66.2 °F 83% 29.80 in - North 9.2 mph - N/A   Clear
6:00 PM 71 °F - 66 °F 78% 29.83 in 16 mi North 9.2 mph - -   Haze
6:00 PM 69.8 °F - 66.2 °F 88% 29.83 in - North 9.2 mph - N/A   Clear
6:30 PM 71.6 °F - 64.4 °F 78% 29.83 in - North 11.5 mph - N/A   Clear
7:00 PM 70 °F - 64 °F 77% 29.86 in - North 5.8 mph - -  
7:00 PM 69.8 °F - 64.4 °F 83% 29.86 in - North 5.8 mph - N/A   Clear
7:30 PM 69.8 °F - 64.4 °F 83% 29.86 in - North 8.1 mph - N/A   Clear
7:46 PM - - - N/A% - - North - - N/A   Unknown
8:00 PM 68.0 °F - 64.4 °F 88% 29.89 in - North 9.2 mph - N/A   Clear
8:30 PM 68.0 °F - 64.4 °F 88% 29.89 in - North 8.1 mph - N/A   Clear
9:00 PM 68 °F - 65 °F 85% 29.90 in 12 mi NNE 5.8 mph - -   Haze
9:00 PM 68.0 °F - 64.4 °F 88% 29.89 in - NNE 5.8 mph - N/A   Clear
9:30 PM 68.0 °F - 66.2 °F 94% 29.89 in - East 5.8 mph - N/A   Clear
10:00 PM 68 °F - 65 °F 88% 29.92 in - SE 5.8 mph - -  
10:00 PM 68.0 °F - 66.2 °F 94% 29.92 in - SE 5.8 mph - N/A   Clear
10:30 PM 68.0 °F - 66.2 °F 94% 29.92 in - ESE 5.8 mph - N/A   Clear
11:00 PM 68.0 °F - 64.4 °F 88% 29.92 in - East 5.8 mph - N/A   Clear
11:30 PM 68.0 °F - 64.4 °F 88% 29.92 in - ESE 5.8 mph - N/A   Clear